STARLINK-1674 (46555 NORAD) Tracking and Keplerian Element Data

This shows tracking and keplerian element data for the satellite.

Feedback or suggestion? Click here.




ElementValue
Catalog46555
NameSTARLINK-1674
Epoch Orbit181
Epoch Day335.91670139
Epoch Year2020
RAAN170.119
Inclination53.0009
Eccentricity0.0002207
Argument of Perigee27.549
Mean Anonmoly147.8353
Mean Motion15.62700326
Decay Rate0.000512
L11 46555U 20070Z 20335.91670139 .00051200 00000-0 56259-3 0 9991
L22 46555 53.0009 170.1190 0002207 27.5490 147.8353 15.62700326 1814

Live tracking and technical data element details for STARLINK-1674 (NORAD 46555). STARLINK-1674 can be tracked NOW for your location showing map with azimuth and elevation plus other details from your city location.

Track the satellite on the map from your city or location and see movement details for azimuth, elevation, latitude, longitude, range, height, and movement on the map or in text.







IsCatalogInMostPopularTable: catalog: 46555, numindb: 14
Update: records affected: 1



GetName: 46555 STARLINK-1674

Hit Count: updated at: Wed, 02 Dec 2020 06:08:25 GMT